Location: Redwood Loop Observatory
(43.9900°N, 124.0900°W)
Time: 10:05:14
(UTC-07:00)

ISS - Visible Passes

Search period start: 19 March 2019 00:00
Search period end: 29 March 2019 00:00
Orbit: 406 x 411 km, 51.6° (Epoch: 20 March)

Date Brightness Start Highest point End Pass type
(mag) Time Alt. Az. Time Alt. Az. Time Alt. Az.
20 Mar -2.4 20:58:58 10° SSW 21:00:50 24° S 21:00:50 24° S visible
21 Mar -2.1 20:08:48 10° S 20:11:03 17° SE 20:12:53 12° E visible
21 Mar -1.9 21:44:01 10° WSW 21:45:40 27° WSW 21:45:40 27° WSW visible
22 Mar -3.9 20:53:00 10° SW 20:56:16 72° SE 20:57:29 35° ENE visible
22 Mar -0.3 22:30:10 10° WNW 22:30:16 11° WNW 22:30:16 11° WNW visible
23 Mar -3.2 20:02:12 10° SSW 20:05:19 40° SE 20:08:25 10° ENE visible
23 Mar -2.4 21:38:48 10° W 21:41:50 36° NNW 21:41:50 36° NNW visible
24 Mar -3.1 20:47:31 10° WSW 20:50:45 53° NNW 20:53:16 16° NE visible
24 Mar -0.6 22:25:10 10° WNW 22:26:01 15° NW 22:26:01 15° NW visible
25 Mar -3.8 19:56:22 10° WSW 19:59:40 87° NNW 20:02:59 10° ENE visible
25 Mar -1.9 21:33:45 10° WNW 21:36:34 25° NNW 21:37:16 23° N visible
26 Mar -2.2 20:42:19 10° W 20:45:19 31° NNW 20:48:20 10° NE visible
26 Mar -0.8 22:19:58 10° NW 22:21:10 16° NNW 22:21:10 16° NNW visible
27 Mar -1.7 21:28:39 10° WNW 21:31:16 21° N 21:32:13 19° NNE visible
28 Mar -1.7 20:37:13 10° WNW 20:39:57 23° N 20:42:41 10° NE visible
28 Mar -1.1 22:14:29 10° NW 22:15:56 19° NNW 22:15:56 19° NNW visible
